| time (UTC) | temp F | wind direction | speed MPH | gust MPH | rain 1hr in | rain 24hr in | rain mn in | humidity % | barometer mb |
| 20260508110346 | 43 | 322 | 4.0 | 11.0 | 0.00 | 0.02 | 0.02 | 76 | 1004.5 |
| 20260508104850 | 42 | 350 | 7.0 | 11.0 | 0.00 | 0.02 | 0.02 | 76 | 1004.4 |
| 20260508103353 | 41 | 333 | 6.0 | 11.0 | 0.00 | 0.02 | 0.02 | 76 | 1004.3 |
| 20260508101857 | 41 | 310 | 5.0 | 11.0 | 0.00 | 0.02 | 0.02 | 76 | 1004.4 |
| 20260508100349 | 40 | 296 | 6.0 | 11.0 | 0.00 | 0.02 | 0.02 | 76 | 1004.3 |
| 20260508094853 | 40 | 283 | 4.0 | 9.0 | 0.00 | 0.02 | 0.02 | 77 | 1004.3 |
| 20260508093357 | 39 | 325 | 4.0 | 11.0 | 0.00 | 0.02 | 0.02 | 76 | 1004.1 |
| 20260508091845 | 39 | 311 | 6.0 | 11.0 | 0.00 | 0.02 | 0.02 | 76 | 1004.0 |
| 20260508090349 | 39 | 295 | 4.0 | 9.0 | 0.00 | 0.02 | 0.02 | 74 | 1004.1 |
| 20260508084852 | 40 | 317 | 5.0 | 11.0 | 0.00 | 0.02 | 0.02 | 73 | 1003.9 |
| 20260508083400 | 41 | 319 | 4.0 | 8.0 | 0.00 | 0.02 | 0.02 | 73 | 1003.8 |
| 20260508081842 | 41 | 335 | 4.0 | 9.0 | 0.00 | 0.02 | 0.02 | 73 | 1003.7 |
| 20260508080346 | 41 | 338 | 4.0 | 10.0 | 0.00 | 0.10 | 0.02 | 71 | 1003.8 |
| 20260508074854 | 41 | 317 | 6.0 | 9.0 | 0.00 | 0.10 | 0.02 | 71 | 1003.8 |
| 20260508073357 | 41 | 336 | 5.0 | 8.0 | 0.00 | 0.10 | 0.02 | 70 | 1003.9 |
| 20260508071901 | 42 | 310 | 5.0 | 10.0 | 0.00 | 0.10 | 0.02 | 69 | 1004.0 |
| 20260508070346 | 42 | 294 | 5.0 | 10.0 | 0.00 | 0.20 | 0.02 | 69 | 1003.6 |
| 20260508064851 | 42 | 327 | 3.0 | 10.0 | 0.00 | 0.20 | 0.02 | 69 | 1003.8 |
| 20260508063354 | 42 | 335 | 5.0 | 12.0 | 0.00 | 0.20 | 0.02 | 69 | 1004.0 |
| 20260508061841 | 42 | 342 | 5.0 | 10.0 | 0.00 | 0.20 | 0.02 | 69 | 1003.9 |
| 20260508060406 | 42 | 347 | 4.0 | 11.0 | 0.00 | 0.22 | 0.02 | 68 | 1004.1 |
| 20260508054848 | 42 | 327 | 5.0 | 11.0 | 0.00 | 0.22 | 0.02 | 68 | 1004.2 |
| 20260508053356 | 43 | 300 | 4.0 | 11.0 | 0.00 | 0.22 | 0.02 | 68 | 1004.3 |
| 20260508051901 | 43 | 294 | 5.0 | 8.0 | 0.00 | 0.22 | 0.02 | 69 | 1004.5 |
| 20260508050345 | 43 | 319 | 4.0 | 8.0 | 0.00 | 0.23 | 0.02 | 68 | 1004.6 |
| 20260508044854 | 43 | 315 | 5.0 | 11.0 | 0.00 | 0.23 | 0.02 | 68 | 1004.8 |
| 20260508043357 | 44 | 316 | 4.0 | 8.0 | 0.00 | 0.23 | 0.02 | 69 | 1004.9 |
| 20260508041841 | 44 | 306 | 3.0 | 8.0 | 0.00 | 0.23 | 0.02 | 69 | 1004.7 |
| 20260508040348 | 45 | 327 | 4.0 | 9.0 | 0.00 | 0.30 | 0.02 | 69 | 1004.9 |
| 20260508034853 | 46 | 297 | 4.0 | 9.0 | 0.00 | 0.30 | 0.02 | 66 | 1004.7 |
| 20260508033358 | 46 | 315 | 6.0 | 11.0 | 0.00 | 0.30 | 0.02 | 65 | 1004.5 |
| 20260508031846 | 47 | 323 | 4.0 | 11.0 | 0.00 | 0.30 | 0.02 | 63 | 1004.7 |
| 20260508030348 | 48 | 323 | 5.0 | 12.0 | 0.00 | 0.37 | 0.02 | 62 | 1004.6 |
| 20260508024852 | 48 | 311 | 4.0 | 9.0 | 0.00 | 0.37 | 0.02 | 61 | 1004.6 |
| 20260508023359 | 48 | 330 | 5.0 | 13.0 | 0.00 | 0.37 | 0.02 | 61 | 1004.6 |
| 20260508021843 | 48 | 302 | 6.0 | 11.0 | 0.00 | 0.37 | 0.02 | 68 | 1004.6 |
| 20260508020348 | 48 | 296 | 5.0 | 10.0 | 0.01 | 0.39 | 0.02 | 75 | 1004.8 |
| 20260508014854 | 49 | 303 | 5.0 | 13.0 | 0.01 | 0.39 | 0.02 | 70 | 1004.8 |
| 20260508013358 | 48 | 327 | 4.0 | 10.0 | 0.01 | 0.39 | 0.02 | 60 | 1004.7 |
| 20260508011901 | 48 | 336 | 5.0 | 12.0 | 0.01 | 0.39 | 0.02 | 63 | 1004.4 |
| 20260508010348 | 49 | 335 | 10.0 | 21.0 | 0.00 | 0.38 | 0.01 | 74 | 1004.5 |
| 20260508004851 | 52 | 13 | 6.0 | 11.0 | 0.00 | 0.38 | 0.01 | 74 | 1004.2 |
| 20260508003350 | 52 | 319 | 3.0 | 6.0 | 0.00 | 0.38 | 0.01 | 73 | 1003.9 |
| 20260508001854 | 53 | 269 | 2.0 | 6.0 | 0.00 | 0.38 | 0.01 | 72 | 1003.7 |
| 20260508000404 | 53 | 271 | 4.0 | 7.0 | 0.00 | 0.38 | 0.01 | 71 | 1003.6 |
| 20260507234844 | 53 | 290 | 3.0 | 8.0 | 0.00 | 0.38 | 0.01 | 69 | 1003.5 |
| 20260507233347 | 54 | 275 | 1.0 | 8.0 | 0.00 | 0.38 | 0.01 | 67 | 1003.3 |
| 20260507231855 | 55 | 279 | 3.0 | 10.0 | 0.00 | 0.38 | 0.01 | 64 | 1002.9 |
| 20260507230359 | 55 | 327 | 5.0 | 11.0 | 0.00 | 0.38 | 0.01 | 65 | 1002.4 |
| 20260507224900 | 55 | 315 | 8.0 | 15.0 | 0.00 | 0.38 | 0.01 | 63 | 1002.3 |
| 20260507223348 | 56 | 325 | 4.0 | 8.0 | 0.00 | 0.38 | 0.01 | 70 | 1002.4 |
| 20260507221912 | 56 | 229 | 3.0 | 5.0 | 0.00 | 0.38 | 0.01 | 69 | 1002.2 |
| 20260507220353 | 57 | 225 | 3.0 | 7.0 | 0.00 | 0.38 | 0.01 | 68 | 1002.1 |
| 20260507214900 | 57 | 211 | 3.0 | 9.0 | 0.00 | 0.38 | 0.01 | 67 | 1002.0 |
| 20260507213422 | 57 | 219 | 6.0 | 12.0 | 0.00 | 0.38 | 0.01 | 65 | 1002.0 |
| 20260507211844 | 59 | 236 | 6.0 | 11.0 | 0.00 | 0.38 | 0.01 | 61 | 1001.9 |
| 20260507210346 | 60 | 221 | 6.0 | 11.0 | 0.00 | 0.38 | 0.01 | 60 | 1001.9 |
| 20260507204853 | 62 | 271 | 6.0 | 13.0 | 0.00 | 0.38 | 0.01 | 46 | 1001.7 |
| 20260507203356 | 62 | 229 | 4.0 | 12.0 | 0.00 | 0.38 | 0.01 | 42 | 1001.6 |
| 20260507201900 | 61 | 24 | 5.0 | 9.0 | 0.00 | 0.38 | 0.01 | 43 | 1001.5 |
| 20260507200346 | 62 | 348 | 6.0 | 11.0 | 0.00 | 0.38 | 0.01 | 42 | 1001.5 |
| 20260507194849 | 60 | 323 | 5.0 | 12.0 | 0.00 | 0.38 | 0.01 | 45 | 1001.5 |
| 20260507193411 | 61 | 28 | 6.0 | 15.0 | 0.00 | 0.38 | 0.01 | 40 | 1001.7 |
| 20260507191838 | 61 | 25 | 327.0 | 327.0 | 0.00 | 0.00 | 0.01 | 40 | 1001.9 |
| 20260507190343 | 60 | 28 | 7.0 | 15.0 | 0.00 | 0.38 | 0.01 | 45 | 1001.9 |
| 20260507184846 | 60 | 46 | 8.0 | 15.0 | 0.00 | 0.38 | 0.01 | 45 | 1002.1 |
| 20260507183409 | 59 | 360 | 6.0 | 15.0 | 0.00 | 0.38 | 0.01 | 50 | 1002.3 |
| 20260507181855 | 59 | 355 | 6.0 | 16.0 | 0.00 | 0.38 | 0.01 | 53 | 1002.4 |
| 20260507180358 | 58 | 334 | 9.0 | 16.0 | 0.00 | 0.38 | 0.01 | 52 | 1002.4 |
| 20260507174842 | 58 | 355 | 8.0 | 14.0 | 0.00 | 0.38 | 0.01 | 56 | 1002.3 |
| 20260507173348 | 58 | 355 | 7.0 | 17.0 | 0.01 | 0.38 | 0.01 | 57 | 1002.4 |
| 20260507171852 | 58 | 360 | 9.0 | 15.0 | 0.01 | 0.38 | 0.01 | 57 | 1002.6 |
| 20260507170353 | 57 | 330 | 10.0 | 12.0 | 0.01 | 0.38 | 0.01 | 59 | 1002.5 |
| 20260507164900 | 56 | 355 | 7.0 | 13.0 | 0.01 | 0.38 | 0.01 | 61 | 1002.7 |
| 20260507163345 | 56 | 317 | 8.0 | 13.0 | 0.00 | 0.37 | 0.00 | 61 | 1002.9 |
| 20260507161847 | 55 | 329 | 6.0 | 13.0 | 0.00 | 0.37 | 0.00 | 66 | 1003.2 |
| 20260507160355 | 55 | 325 | 5.0 | 13.0 | 0.00 | 0.37 | 0.00 | 66 | 1003.4 |
| 20260507154859 | 54 | 269 | 7.0 | 12.0 | 0.00 | 0.37 | 0.00 | 71 | 1003.5 |
| 20260507153344 | 54 | 304 | 10.0 | 14.0 | 0.00 | 0.37 | 0.00 | 70 | 1003.6 |
| 20260507151849 | 53 | 5 | 6.0 | 14.0 | 0.00 | 0.37 | 0.00 | 75 | 1003.8 |
| 20260507150411 | 53 | 36 | 10.0 | 14.0 | 0.00 | 0.37 | 0.00 | 74 | 1003.8 |
| 20260507144854 | 52 | 330 | 7.0 | 11.0 | 0.00 | 0.37 | 0.00 | 71 | 1004.1 |
| 20260507143343 | 51 | 330 | 7.0 | 12.0 | 0.00 | 0.37 | 0.00 | 72 | 1004.2 |
| 20260507141906 | 51 | 344 | 5.0 | 13.0 | 0.00 | 0.37 | 0.00 | 70 | 1004.4 |
| 20260507140349 | 50 | 5 | 6.0 | 12.0 | 0.00 | 0.37 | 0.00 | 56 | 1004.7 |
| 20260507134852 | 50 | 31 | 7.0 | 15.0 | 0.00 | 0.37 | 0.00 | 49 | 1004.5 |
| 20260507133340 | 49 | 346 | 6.0 | 9.0 | 0.00 | 0.37 | 0.00 | 31 | 1004.5 |
| 20260507131845 | 49 | 309 | 7.0 | 11.0 | 0.00 | 0.37 | 0.00 | 18 | 1004.6 |
| 20260507130348 | 48 | 309 | 4.0 | 10.0 | 0.00 | 0.37 | 0.00 | 3 | 1004.4 |
| 20260507124857 | 48 | 355 | 5.0 | 10.0 | 0.00 | 0.37 | 0.00 | 1 | 1004.1 |
| 20260507123400 | 48 | 5 | 7.0 | 11.0 | 0.00 | 0.37 | 0.00 | 1 | 1004.4 |
| 20260507121905 | 48 | 30 | 7.0 | 12.0 | 0.00 | 0.37 | 0.00 | 1 | 1004.5 |
| 20260507120352 | 48 | 327 | 4.0 | 8.0 | 0.00 | 0.37 | 0.00 | 1 | 1004.7 |
| 20260507114856 | 48 | 324 | 4.0 | 9.0 | 0.00 | 0.37 | 0.00 | 1 | 1004.9 |
| 20260507113357 | 48 | 315 | 4.0 | 9.0 | 0.00 | 0.37 | 0.00 | 1 | 1004.7 |
| 20260507111845 | 48 | 33 | 4.0 | 8.0 | 0.00 | 0.37 | 0.00 | 1 | 1004.0 |